Location: Blangy-Tronville
(49.8790°N, 2.4226°E)
Time: 20:40:18
(UTC+00:00)

Resurs 01 Rocket - Pass Details

Date: 18 November 2025
Orbit: 627 x 636 km, 97.7° (Epoch: 05 December)

Event Time Altitude Azimuth Distance (km) Brightness Sun altitude
Exits shadow 17:30:07 15° 39° (NE) 1,706 3.3 -13.9°
Drops below altitude 10° 17:31:44 10° 19° (NNE) 2,035 3.9 -14.1°
Sets 17:34:35 0° 360° (N) 2,948 4.9 -14.6°
